[[{"header":{"parameterUnit":"m.s-1","parameterCategory":1,"la1":30.2991,"la2":30.254,"lo1":-89.0895,"lo2":-89.0444,"dy":0.0017,"dx":0.0017,"nx":28,"ny":28,"refTime":"2024-08-08T21:00:00:Z","depth":0,"parameterNumber":2,"parameterNumberName":"U-component_of_WINDS"},"data":[0,0,0,0,0,0,0,0,0,0,0,0,0,0,0,0,0,0,0,0,0,0,0,0,0,0,0,0,0,0,0,0,0,0,0,0,0,0,0,0,0,0,0,0,0,0,0,0,0,0,0,0,0,0,0,0,0,0,1.7508,1.751,0,1.7709,1.7711,1.7713,1.776,1.7759,1.7758,1.7756,1.7963,1.797,1.7976,0,0,0,0,0,0,0,0,0,0,0,0,0,1.7166,1.7172,1.7508,1.751,1.7513,1.7708,1.7711,1.7714,1.7761,1.7759,1.7757,1.7756,1.7961,1.7969,1.7977,0,0,0,0,0,0,0,0,0,0,0,0,0,1.7335,1.7174,1.7507,1.756,1.7567,1.7708,1.7711,1.7715,1.7761,1.7759,1.7757,1.7755,1.7958,1.7968,1.7978,1.8082,0,0,1.8009,1.8014,0,0,0,0,0,0,0,0,1.7326,1.7348,1.755,1.7556,1.7564,1.7707,1.7666,1.7838,1.7762,1.7687,1.7756,1.7754,1.788,1.7896,1.7938,1.8091,1.81,1.801,1.8016,1.8021,1.8023,0,0,0,0,0,0,0,1.7314,1.7339,1.7587,1.7552,1.7561,1.7574,1.7595,1.7699,1.7793,1.7694,1.7697,1.772,1.7883,1.7928,1.7944,1.8103,1.801,1.8019,1.8025,1.8029,1.8351,1.8354,0,0,0,0,0,0,1.7293,1.7329,1.7581,1.7593,1.7437,1.7581,1.7606,1.7664,1.7792,1.7809,1.7722,1.7722,1.7912,1.7932,1.7951,1.8081,1.802,1.803,1.8036,1.8349,1.8352,1.8354,0,0,0,0,0,0,1.7285,1.7315,1.7573,1.7463,1.7496,1.7589,1.7654,1.7669,1.7714,1.7813,1.783,1.7751,1.7911,1.7937,1.8049,1.8088,1.8035,1.8044,1.8346,1.835,1.8353,1.834,0,0,0,0,0,0,1.7275,1.7312,1.7352,1.7463,1.7502,1.7667,1.7656,1.7674,1.7731,1.7733,1.7845,1.7861,1.7912,1.8033,1.8059,1.8101,1.8052,1.8343,1.8348,1.8352,1.8338,1.8343,1.8348,0,0,0,0,0,1.7263,1.7341,1.7354,1.7384,1.7554,1.7669,1.7691,1.7748,1.7734,1.7775,1.7839,1.7858,1.808,1.8044,1.8074,1.812,1.8341,1.8346,1.8352,1.8335,1.8342,1.8348,0,0,0,0,0,0,1.7233,1.7356,1.7372,1.7488,1.7568,1.7677,1.7731,1.7753,1.7838,1.7836,1.7903,1.7928,1.8035,1.8089,1.8047,1.8227,1.821,1.8222,1.8188,1.8195,1.82,1.8185,1.806,0,0,0,0,0,1.7239,1.7322,1.7426,1.7518,1.7557,1.7637,1.7689,1.7725,1.7811,1.7845,1.7917,1.7999,1.8087,1.8144,1.8231,1.8346,1.8371,1.8392,1.8397,1.8401,1.841,1.8474,1.8485,1.8373,1.8373,1.8373,0,0,1.7254,1.7332,1.738,1.7514,1.758,1.7664,1.7665,1.7754,1.7818,1.7858,1.7968,1.8024,1.812,1.8234,1.8287,1.8282,1.8446,1.8408,1.841,1.8417,1.8481,1.8491,1.8501,1.8376,1.8376,1.8375,0,0,1.7324,1.7392,1.7476,1.7542,1.7641,1.7693,1.7713,1.782,1.7858,1.7969,1.8001,1.8078,1.8229,1.8296,1.8349,1.8444,1.8465,1.8471,1.8498,1.8559,1.8568,1.8576,1.861,1.8621,1.848,1.848,1.848,0,1.733,1.7458,1.7516,1.7604,1.7662,1.7702,1.7788,1.7849,1.7972,1.8011,1.8003,1.8193,1.826,1.839,1.8413,1.8455,1.848,1.8458,1.8562,1.8571,1.8579,1.8612,1.8625,1.848,1.848,1.848,1.848,0,1.7461,1.7549,1.7605,1.7722,1.7786,1.7872,1.7943,1.8001,1.8032,1.8085,1.8198,1.828,1.8384,1.8418,1.8449,1.8552,1.8545,1.8549,1.8533,1.8589,1.8621,1.8634,1.848,1.848,1.848,1.848,0,0,1.7518,1.7665,1.7684,1.7738,1.785,1.792,1.8008,1.8109,1.8157,1.8241,1.8316,1.8443,1.8446,1.8507,1.8546,1.8601,1.867,1.8598,1.8601,1.8608,1.8788,1.8785,1.8798,1.8684,1.8687,1.8689,1.878,0,1.7601,1.7759,1.7814,1.7944,1.8027,1.8066,1.8142,1.822,1.8272,1.8349,1.8407,1.8495,1.8494,1.8531,1.8586,1.865,1.8707,1.8644,1.8755,1.8758,1.8729,1.8815,1.8812,1.8894,1.8793,1.8795,1.8797,0,1.772,1.7804,1.7943,1.8045,1.8081,1.8149,1.8246,1.8319,1.8408,1.8442,1.851,1.8545,1.8638,1.8617,1.8747,1.8703,1.8751,1.8789,1.8794,1.8806,1.8781,1.8829,1.8921,1.8933,1.8817,1.8815,1.8814,0,1.7747,1.7895,1.7997,1.8042,1.8163,1.821,1.8263,1.8349,1.8406,1.8491,1.8529,1.8624,1.8675,1.8748,1.8808,1.8787,1.8932,1.8916,1.8963,1.8961,1.8992,1.8989,1.9092,1.9023,1.9023,1.9023,1.9022,0,1.7835,1.7918,1.8011,1.8074,1.8168,1.823,1.8321,1.8377,1.8453,1.8527,1.8567,1.8636,1.8711,1.8789,1.8837,1.8937,1.896,1.899,1.9002,1.8987,1.8983,1.9019,1.9015,1.9026,1.9025,1.9025,1.9024,0,1.7881,1.7946,1.806,1.8165,1.8194,1.8259,1.8349,1.8411,1.8465,1.8558,1.8584,1.8668,1.8762,1.8829,1.8951,1.8983,1.909,1.9102,1.906,1.9066,1.9109,1.9104,1.9239,1.926,1.9177,1.9178,1.9178,0,1.7932,1.7997,1.8109,1.8161,1.8214,1.8298,1.8356,1.8419,1.8478,1.8584,1.8633,1.873,1.8812,1.8961,1.9033,1.9126,1.914,1.9181,1.9154,1.9137,1.914,1.9136,1.9142,1.9185,1.9186,1.9186,1.9186,0,1.8016,1.8045,1.8128,1.8221,1.829,1.8367,1.8444,1.8485,1.8562,1.8626,1.8723,1.8786,1.891,1.9006,1.9106,1.9161,1.9187,1.9194,1.921,1.9195,1.9168,1.9183,1.9071,1.9191,1.919,1.919,1.919,1.919,1.8067,1.8126,1.8214,1.8304,1.8369,1.844,1.8504,1.8565,1.8646,1.8752,1.8784,1.8885,1.8971,1.9108,1.9165,1.9244,1.9242,1.9265,1.927,1.9275,1.9274,1.9155,1.9263,1.9263,1.9263,1.9263,1.9263,0,1.8153,1.8211,1.8293,1.84,1.8471,1.8488,1.8575,1.8633,1.8721,1.8799,1.8878,1.8989,1.9082,1.9161,1.9258,1.9306,1.932,1.9329,1.9326,1.9338,1.9271,1.9248,1.9316,1.9316,1.9316,1.9316,1.9316,1.9316,1.8206,1.8307,1.8346,1.8479,1.8538,1.8636,1.8683,1.8749,1.8812,1.8934,1.9011,1.9062,1.9141,1.9243,1.9329,1.935,1.9384,1.939,1.9414,1.9349,1.9343,1.9337,1.9315,1.9397,1.9397,1.9474,1.9475,1.9476]},{"header":{"parameterUnit":"m.s-1","parameterCategory":1,"la1":30.2991,"la2":30.254,"lo1":-89.0895,"lo2":-89.0444,"dy":0.0017,"dx":0.0017,"nx":28,"ny":28,"refTime":"2024-08-08T21:00:00:Z","depth":0,"parameterNumber":3,"parameterNumberName":"V-component_of_WINDS"},"data":[0,0,0,0,0,0,0,0,0,0,0,0,0,0,0,0,0,0,0,0,0,0,0,0,0,0,0,0,0,0,0,0,0,0,0,0,0,0,0,0,0,0,0,0,0,0,0,0,0,0,0,0,0,0,0,0,0,0,0.3685,0.3685,0,0.3716,0.3717,0.3717,0.3682,0.3681,0.368,0.3678,0.371,0.3712,0.3714,0,0,0,0,0,0,0,0,0,0,0,0,0,0.3593,0.3595,0.3685,0.3685,0.3686,0.3716,0.3717,0.3717,0.3682,0.3681,0.3679,0.3678,0.3709,0.3712,0.3714,0,0,0,0,0,0,0,0,0,0,0,0,0,0.363,0.3596,0.3685,0.3672,0.3671,0.3716,0.3717,0.3717,0.3683,0.3681,0.3679,0.3677,0.3708,0.3711,0.3714,0.3773,0,0,0.3724,0.3725,0,0,0,0,0,0,0,0,0.3628,0.3633,0.3674,0.3673,0.3672,0.3693,0.3696,0.3736,0.3683,0.3678,0.3678,0.3676,0.3706,0.3709,0.3719,0.3775,0.3776,0.3724,0.3726,0.3727,0.3728,0,0,0,0,0,0,0,0.3625,0.3632,0.3697,0.3674,0.3673,0.3664,0.3667,0.3703,0.3703,0.3679,0.3676,0.368,0.3705,0.3716,0.372,0.3777,0.3724,0.3727,0.3729,0.373,0.388,0.3882,0,0,0,0,0,0,0.3624,0.363,0.3696,0.3698,0.3645,0.3667,0.3671,0.3689,0.3702,0.3703,0.3682,0.3679,0.3712,0.3716,0.3721,0.379,0.3727,0.373,0.3732,0.3878,0.3881,0.3883,0,0,0,0,0,0,0.3622,0.3631,0.3695,0.3663,0.3671,0.3671,0.3691,0.369,0.3701,0.3705,0.3705,0.3694,0.3711,0.3716,0.376,0.3791,0.3732,0.3735,0.3876,0.3879,0.3882,0.3929,0,0,0,0,0,0,0.362,0.363,0.3653,0.3664,0.3673,0.3735,0.3693,0.3692,0.3707,0.3703,0.3716,0.3716,0.371,0.3756,0.3763,0.3794,0.3737,0.3873,0.3877,0.3881,0.3925,0.3934,0.3941,0,0,0,0,0,0.3617,0.3665,0.3654,0.3663,0.3702,0.3737,0.3742,0.3733,0.371,0.3732,0.3734,0.3716,0.3786,0.3761,0.3769,0.3801,0.3871,0.3876,0.3881,0.3921,0.3932,0.3941,0,0,0,0,0,0,0.3658,0.3667,0.3655,0.3708,0.3722,0.3731,0.3759,0.3745,0.3765,0.3761,0.3749,0.3752,0.3799,0.3804,0.3776,0.3857,0.3825,0.3831,0.3853,0.3863,0.3871,0.3869,0.374,0,0,0,0,0,0.3673,0.3702,0.3707,0.3754,0.3761,0.3759,0.3774,0.3766,0.378,0.3786,0.3791,0.3805,0.3829,0.3846,0.3869,0.3925,0.3927,0.3951,0.3959,0.3966,0.3972,0.4,0.4011,0.3899,0.3899,0.3899,0,0,0.3705,0.3713,0.3732,0.3762,0.3772,0.3801,0.3764,0.3797,0.3818,0.3791,0.3832,0.3836,0.3851,0.39,0.3923,0.3906,0.4003,0.3972,0.3977,0.3979,0.4006,0.4017,0.4026,0.3902,0.3901,0.3901,0,0,0.3778,0.3788,0.3827,0.3837,0.3852,0.385,0.386,0.387,0.3872,0.3914,0.3893,0.3918,0.3961,0.3972,0.3983,0.4058,0.4042,0.4066,0.4109,0.4137,0.4146,0.4153,0.418,0.419,0.4072,0.4072,0.4072,0,0.3816,0.386,0.3849,0.3883,0.3896,0.3872,0.3912,0.3922,0.3944,0.3954,0.3935,0.3988,0.3996,0.4047,0.4066,0.4076,0.4085,0.4065,0.4145,0.4153,0.416,0.4185,0.4195,0.4075,0.4075,0.4074,0.4074,0,0.3905,0.3935,0.3965,0.3987,0.4003,0.404,0.4034,0.4052,0.4043,0.4042,0.4084,0.4093,0.4117,0.4128,0.4119,0.4178,0.4167,0.4147,0.4114,0.4174,0.4197,0.4207,0.4079,0.4078,0.4077,0.4077,0,0,0.4006,0.4021,0.4032,0.4041,0.4055,0.4078,0.4112,0.4136,0.4151,0.4166,0.4195,0.4231,0.4212,0.4225,0.4217,0.4241,0.43,0.4218,0.4218,0.4233,0.4364,0.438,0.4391,0.4288,0.429,0.4292,0.4363,0,0.4079,0.414,0.4131,0.4189,0.4216,0.4193,0.4223,0.4235,0.4235,0.4257,0.4257,0.4283,0.4256,0.4263,0.4287,0.4288,0.4326,0.4282,0.4314,0.4316,0.4312,0.4404,0.442,0.4488,0.4372,0.4374,0.4375,0,0.4173,0.4192,0.4253,0.4262,0.4273,0.43,0.432,0.4342,0.4354,0.4352,0.4366,0.4352,0.4386,0.4351,0.4397,0.4368,0.438,0.4382,0.4384,0.4388,0.435,0.441,0.4509,0.4519,0.4389,0.4388,0.4387,0,0.4241,0.4281,0.4322,0.4331,0.4342,0.4362,0.4367,0.4377,0.4391,0.4408,0.4417,0.4438,0.445,0.4466,0.4458,0.4434,0.4505,0.447,0.4505,0.4505,0.4521,0.4521,0.4625,0.4529,0.4529,0.4528,0.4528,0,0.4324,0.4362,0.4353,0.4378,0.442,0.4408,0.445,0.4452,0.4461,0.4486,0.4467,0.4491,0.4479,0.4502,0.4496,0.4534,0.4539,0.4539,0.4537,0.4541,0.4541,0.4549,0.4545,0.4531,0.453,0.453,0.4529,0,0.4407,0.4402,0.4446,0.4452,0.4455,0.4485,0.4491,0.4514,0.4512,0.4544,0.4551,0.4548,0.4573,0.4567,0.4595,0.459,0.4639,0.4631,0.4635,0.4634,0.4668,0.4665,0.4782,0.4796,0.4691,0.4692,0.4692,0,0.446,0.4489,0.4498,0.4514,0.4521,0.4546,0.456,0.4549,0.4565,0.458,0.4602,0.4625,0.4644,0.4686,0.4686,0.4706,0.4699,0.4738,0.4702,0.4705,0.47,0.4698,0.4701,0.4746,0.4747,0.4748,0.4749,0,0.4555,0.4551,0.4573,0.4594,0.4611,0.4627,0.4641,0.4654,0.4644,0.4662,0.4688,0.4703,0.4731,0.4754,0.4773,0.4778,0.4762,0.476,0.4769,0.4774,0.4775,0.4775,0.4656,0.4758,0.4757,0.4756,0.4756,0.4755,0.4625,0.4649,0.466,0.4684,0.4693,0.4706,0.4728,0.4729,0.475,0.4773,0.4765,0.4794,0.4804,0.4828,0.4835,0.4857,0.4842,0.4855,0.4859,0.4862,0.4867,0.4771,0.486,0.486,0.486,0.486,0.4859,0,0.472,0.4725,0.4747,0.4767,0.4786,0.4768,0.4782,0.4799,0.4826,0.4836,0.4855,0.4884,0.4906,0.4908,0.4928,0.4946,0.4939,0.4952,0.4951,0.4952,0.4879,0.4869,0.4957,0.4957,0.4957,0.4957,0.4957,0.4957,0.4771,0.4811,0.4808,0.4852,0.4856,0.4885,0.4895,0.4906,0.4915,0.4948,0.4967,0.4967,0.4974,0.4995,0.5015,0.5014,0.5023,0.5039,0.5036,0.4967,0.4958,0.4948,0.4939,0.5041,0.5041,0.5107,0.5108,0.5109]}]]